Location: Boiro
(42.6475°N, 8.8834°W)
Time: 15:59:12
(UTC+02:00)

DELTA 1 DEB - Pass Details

Date: 07 July 2022
Orbit: 820 x 872 km, 99.0° (Epoch: 13 August)

Event Time Altitude Azimuth Distance (km) Brightness Sun altitude
Rises 06:24:00 0° 27° (NNE) 3,429 ? -6.9°
Reaches altitude 10° 06:26:52 10° 41° (NE) 2,479 ? -6.5°
Maximum altitude 06:31:13 24° 93° (E) 1,691 ? -5.9°
Drops below altitude 10° 06:35:29 10° 146° (SE) 2,438 ? -5.3°
Sets 06:38:17 0° 160° (SSE) 3,358 ? -4.9°
